GFSMA_850_spd_054.txt.gz
Wind_Speed
34 32 30 26 24 23 20 18 17 14 11 10 10 9 8 8 8 8 8 6 6 6 4 2 3 2 5 7 9 8 10 11 11 11 11 13 13 14 14 14 13 13 13
34 31 28 25 23 20 18 16 14 11 10 9 8 10 8 6 5 6 6 4 4 4 4 3 2 1 4 4 8 8 9 10 12 11 10 12 15 16 16 14 13 13 14
33 30 26 23 21 19 17 15 12 10 9 9 8 8 7 5 3 4 4 2 2 2 2 5 4 4 8 6 10 11 11 12 12 12 12 14 15 15 16 15 15 15 15
32 27 23 21 19 17 14 13 9 9 9 8 6 7 7 5 3 1 1 1 1 0 1 3 4 5 8 10 13 14 17 14 13 13 13 13 15 15 16 16 16 16 15
31 24 21 20 19 17 15 12 11 9 8 9 8 7 8 8 8 6 4 4 3 3 3 5 5 7 8 10 13 15 13 14 14 13 13 13 15 16 16 16 16 15 15
29 22 20 20 19 19 17 14 11 10 9 8 9 8 11 12 13 13 10 10 8 7 7 7 8 9 9 11 13 14 12 14 16 13 14 14 15 15 16 16 15 15 15
26 25 22 21 20 17 13 13 11 12 12 13 14 14 16 17 18 17 16 15 14 12 11 11 10 11 11 13 13 13 13 15 18 17 15 16 16 17 16 16 16 16 17
30 27 22 20 19 16 13 15 15 16 16 18 19 18 18 21 24 22 22 22 19 18 16 14 13 14 15 15 14 15 16 15 17 19 18 18 19 20 20 18 18 18 19
34 27 26 22 17 15 14 14 17 20 20 21 24 21 9 14 13 16 19 21 21 21 18 16 19 20 20 19 19 20 20 18 18 18 20 20 21 22 23 22 21 20 21
36 33 26 20 19 16 17 18 20 22 24 28 28 29 29 29 18 10 12 12 14 17 17 18 21 23 23 23 23 22 22 23 23 22 22 22 23 24 24 23 21 21 22
39 38 29 22 21 20 20 22 24 25 28 33 34 35 31 32 31 31 24 25 25 22 21 22 20 22 25 25 25 25 26 28 28 26 26 26 26 26 27 26 25 23 22
42 42 44 37 29 27 25 23 25 28 31 33 35 36 34 33 32 32 33 27 28 26 28 26 25 22 21 24 25 24 25 29 29 29 30 31 32 30 29 31 31 29 28
46 45 48 50 41 35 30 31 31 34 34 33 33 37 33 33 35 33 32 29 28 27 29 29 25 22 21 21 20 22 24 26 27 27 29 33 35 36 36 35 34 34 32
48 49 47 47 48 39 36 37 39 38 38 27 34 31 26 31 35 34 32 31 28 30 27 26 24 27 26 25 28 28 25 25 23 24 26 28 31 34 38 39 39 38 38
47 45 41 40 42 40 39 39 37 39 34 33 33 26 26 30 33 33 33 32 31 27 26 24 23 25 24 28 28 29 29 27 25 25 26 26 28 30 31 34 39 42 42
40 40 40 41 41 42 41 42 41 36 37 38 30 29 30 30 32 33 35 31 29 26 27 24 25 26 29 26 29 28 25 25 25 27 29 30 31 32 32 34 36 39 41
42 41 40 41 42 44 41 40 37 38 37 36 30 31 29 28 33 33 32 32 27 26 27 27 27 26 27 26 29 27 27 28 28 29 30 32 32 34 37 39 40 41 42
44 42 40 43 42 43 42 39 39 42 40 37 31 31 30 30 32 33 33 29 27 26 27 27 27 25 26 28 28 26 25 27 28 29 30 33 34 36 39 40 40 40 42
47 45 46 45 44 38 48 45 43 41 37 33 33 34 30 31 34 37 31 28 25 25 25 26 26 26 30 26 24 24 27 29 31 33 36 38 39 41 41 43 44 43 43
51 49 50 48 47 45 37 43 39 33 30 33 37 33 31 34 35 30 27 25 24 24 24 26 27 27 24 23 26 29 32 33 37 37 38 38 38 37 36 37 37 41 43
51 50 46 48 49 48 46 39 37 28 34 38 31 32 33 31 26 24 24 25 26 25 25 23 25 24 24 26 28 30 35 37 39 39 35 38 40 39 38 38 38 35 35
52 46 49 46 46 43 41 34 32 30 34 33 32 33 28 25 24 25 26 25 25 23 22 25 23 23 25 28 28 30 33 36 41 38 39 44 41 41 38 36 37 28 31
44 46 44 41 39 35 32 33 32 34 32 30 30 27 25 25 25 26 25 24 22 22 23 22 22 24 25 25 28 30 31 33 35 39 39 48 43 43 37 36 33 26 22
38 39 35 33 35 31 31 34 29 27 26 25 22 22 23 25 25 24 22 22 21 20 21 22 22 22 24 24 26 27 29 32 35 35 32 42 43 42 35 34 28 25 22
33 32 28 26 23 24 25 27 29 27 22 21 21 23 23 24 23 22 20 19 18 20 21 21 21 23 22 23 22 24 25 28 36 38 36 28 33 35 35 33 24 24 22
25 24 22 24 24 24 24 22 20 19 20 22 23 24 23 22 20 20 18 18 19 20 20 21 20 20 21 20 20 22 23 26 28 37 24 33 37 30 25 31 26 29 24

GFSMA_850_spd_057.txt.gz
Wind_Speed
36 33 31 28 27 25 23 22 18 18 16 15 14 12 12 11 11 11 10 9 8 9 6 4 3 3 6 6 7 7 8 10 11 11 12 14 15 15 15 13 12 12 13
35 33 31 29 27 24 23 21 17 14 14 15 14 13 11 10 9 9 8 7 6 8 7 3 1 2 3 1 3 5 7 9 9 11 12 13 14 14 14 13 13 12 13
32 32 30 29 26 23 21 22 19 15 14 15 13 13 11 8 7 6 5 6 4 4 6 6 4 4 6 8 8 5 9 11 10 10 11 12 12 12 13 13 13 13 13
35 31 30 29 26 22 22 21 18 17 15 13 13 12 10 8 6 5 5 4 4 3 3 5 7 6 10 9 9 8 11 13 12 11 11 11 11 12 13 13 13 12 12
34 33 30 28 26 22 21 19 16 16 17 15 13 10 10 10 9 7 5 4 5 5 5 4 6 8 9 10 10 10 11 13 14 13 12 12 12 12 12 12 13 12 12
36 33 29 27 24 22 22 18 16 16 14 12 11 10 11 13 13 11 10 9 8 7 7 6 7 9 9 10 11 10 9 11 13 15 16 14 14 15 14 14 13 13 13
37 33 29 26 24 23 21 18 18 17 15 14 12 13 13 15 17 16 15 14 14 12 11 10 9 10 12 10 11 11 12 11 13 17 19 20 18 19 18 17 16 16 15
40 35 30 27 24 24 24 24 21 18 17 16 17 15 11 16 22 21 19 19 18 17 17 15 14 12 13 14 14 13 12 12 13 14 18 22 23 23 23 22 20 20 18
40 35 32 26 23 26 25 19 20 20 18 17 19 17 7 10 10 14 16 18 17 18 21 19 18 15 15 16 17 17 15 15 16 17 17 22 24 25 25 24 23 21 21
38 34 33 30 29 28 25 18 15 18 19 20 22 25 25 24 14 9 13 15 13 13 15 19 18 17 18 20 20 20 20 20 21 22 22 21 23 26 28 28 26 25 24
40 41 38 37 31 28 26 17 19 20 20 23 23 27 29 30 33 29 20 21 21 18 18 18 20 21 20 22 22 22 28 27 26 24 28 28 27 27 28 31 31 30 29
43 44 41 35 39 33 27 22 20 19 19 23 24 28 32 30 30 31 31 28 26 22 21 21 21 23 21 24 24 24 28 29 26 27 31 31 32 33 34 31 32 34 34
48 47 45 41 43 39 32 29 27 25 25 27 27 30 34 34 33 37 31 28 27 26 24 25 23 23 23 24 26 27 27 27 30 31 30 30 32 34 35 38 38 38 36
50 46 49 48 47 51 45 43 40 37 32 33 33 33 33 30 35 36 35 31 26 28 29 29 27 24 23 22 23 23 24 28 26 28 29 29 29 31 33 34 37 39 41
53 52 50 50 47 49 49 49 49 45 39 38 35 32 30 34 35 31 28 31 31 26 27 29 24 24 23 22 23 25 27 26 29 27 27 28 29 30 32 34 36 38 38
59 56 54 53 54 52 52 50 44 44 42 42 40 41 42 41 35 31 28 30 31 32 27 23 22 23 22 22 25 26 26 28 27 25 25 27 29 31 32 34 36 39 42
55 56 56 55 53 50 44 41 42 44 45 45 45 41 39 41 36 30 30 32 33 32 31 30 25 24 24 25 27 26 29 29 27 24 24 25 27 29 31 34 36 38 42
46 47 46 46 44 43 40 43 47 48 44 42 34 40 40 38 34 32 32 34 34 33 30 28 26 25 24 25 24 25 26 26 24 23 24 27 30 32 34 36 38 40 43
40 44 43 43 44 43 45 50 48 44 43 40 40 32 31 38 34 36 35 34 35 35 30 27 25 24 25 25 25 24 22 24 24 24 26 28 30 30 31 32 34 37 39
43 47 46 48 48 46 50 49 47 42 43 46 38 35 44 39 39 38 32 35 36 31 27 24 25 24 24 22 21 22 23 24 24 24 27 27 28 30 32 33 36 38 38
47 51 47 47 48 51 51 49 48 47 51 41 34 41 42 39 39 33 33 35 31 28 26 25 25 22 20 21 20 22 24 25 26 25 25 27 33 34 34 34 36 37 35
49 51 49 47 47 47 47 44 45 42 44 46 42 40 38 38 33 33 30 27 24 25 25 24 23 20 19 21 21 22 24 24 19 25 28 33 33 34 34 34 35 31 29
41 45 47 48 49 48 46 43 43 39 40 34 34 38 36 33 32 30 25 26 26 26 24 23 20 18 19 21 21 22 23 23 23 26 31 33 30 32 28 31 32 25 23
34 35 35 35 35 37 37 36 33 33 33 36 35 35 32 30 27 24 25 26 25 24 21 19 16 18 19 20 21 21 23 23 26 27 27 28 27 32 30 33 31 20 18
26 29 30 33 35 36 32 30 30 32 36 32 30 28 26 24 24 26 25 24 22 20 17 14 17 19 19 19 20 20 20 23 25 24 26 23 25 32 37 32 19 18 20
25 27 29 29 30 30 29 27 26 28 29 28 26 25 23 24 23 24 21 18 16 14 13 15 16 17 16 16 17 18 23 24 22 24 17 25 26 20 20 25 14 22 20

GFSMA_850_spd_060.txt.gz
Wind_Speed
39 32 32 30 27 24 24 22 18 19 17 17 17 15 13 13 14 12 12 12 12 11 8 6 8 6 8 8 8 8 8 8 9 9 10 11 11 12 12 13 13 13 12
38 33 35 27 24 23 22 20 20 18 17 16 15 14 12 12 11 12 9 10 11 9 6 5 2 3 2 6 6 4 5 5 6 6 6 8 10 11 12 12 12 13 13
38 33 30 27 23 22 22 20 20 17 16 15 15 14 12 11 10 11 11 8 9 11 11 8 5 3 5 4 5 3 3 4 5 6 6 7 8 9 11 11 11 12 11
35 35 32 25 25 22 21 19 19 16 16 16 15 13 12 11 10 9 9 10 9 9 12 12 10 7 8 8 8 6 4 6 5 6 7 6 7 9 11 11 11 11 11
30 27 27 27 27 26 21 21 19 17 16 15 14 14 12 11 11 10 9 9 10 12 10 9 11 11 12 12 10 8 9 8 8 9 8 9 9 10 11 12 12 12 12
28 27 27 28 26 21 20 22 20 19 16 15 14 13 13 14 13 12 11 11 11 12 11 12 11 12 13 12 12 12 13 13 14 11 12 13 13 14 14 14 14 14 14
40 31 26 29 24 20 20 24 21 19 18 16 14 13 14 15 16 16 15 15 14 15 15 14 14 12 13 14 14 16 15 15 16 16 17 17 18 19 20 19 18 18 18
37 37 32 30 29 20 23 23 23 18 16 21 13 11 10 12 18 19 20 19 19 17 17 18 17 15 15 14 17 17 17 17 18 17 19 20 21 23 25 26 25 24 22
37 37 35 33 32 29 27 25 22 21 17 20 20 11 8 12 8 11 19 20 21 22 19 21 20 20 20 19 19 20 20 19 19 18 18 19 21 23 27 28 29 27 28
34 34 37 34 33 31 27 26 24 22 23 18 23 24 19 12 10 7 10 15 17 18 19 16 19 22 24 24 22 21 23 20 20 21 21 21 22 21 25 29 31 30 31
44 37 38 37 35 31 26 23 20 21 22 22 18 14 20 21 26 26 21 16 23 21 20 18 20 20 25 26 24 24 23 24 25 25 26 28 27 28 29 28 30 32 34
43 40 43 41 37 30 30 33 28 22 27 25 22 20 18 17 18 23 28 32 31 20 23 21 22 21 25 24 25 26 25 27 27 28 31 32 32 36 36 36 34 33 33
47 47 48 44 40 36 36 31 35 33 30 26 24 23 23 24 21 29 33 30 30 31 26 25 25 25 25 29 27 26 25 26 29 33 33 33 35 36 35 35 36 39 39
48 48 47 49 51 51 44 41 40 35 31 31 32 30 26 28 30 33 33 28 32 38 25 29 23 29 26 26 27 27 26 26 27 28 31 33 34 33 34 34 34 36 38
50 52 49 49 49 48 44 40 46 43 36 36 36 37 33 32 33 34 31 28 35 25 27 22 25 28 26 27 30 26 25 26 28 29 29 29 30 31 31 32 33 35 37
51 52 53 53 53 51 53 49 50 44 42 40 38 36 35 40 37 40 39 38 45 38 28 22 28 27 26 28 27 28 27 30 30 29 29 29 28 29 30 30 32 34 35
45 48 42 46 45 44 41 41 43 41 40 42 41 38 41 43 45 53 46 47 47 37 34 26 32 30 29 28 30 28 29 30 23 30 30 27 26 27 27 29 32 35 37
53 54 50 50 50 48 49 46 46 46 44 43 39 37 40 42 44 36 44 41 45 40 39 38 37 35 31 30 30 29 28 29 28 26 27 23 25 27 28 31 32 32 34
45 44 45 55 59 61 62 60 58 55 53 48 45 45 48 43 37 39 32 30 42 39 40 39 38 35 31 30 28 26 28 27 25 26 26 25 27 27 28 27 29 31 34
40 41 43 49 55 53 56 57 56 55 51 51 50 49 50 57 62 47 36 41 44 39 45 41 39 34 29 28 27 25 17 18 17 20 24 25 26 25 27 27 29 31 33
44 42 45 46 50 52 45 45 43 47 51 51 53 53 53 52 49 43 40 42 49 45 42 40 36 32 29 28 28 18 15 15 17 21 22 21 23 25 27 28 31 32 32
41 40 42 42 42 44 48 49 49 50 52 51 50 45 43 45 46 43 45 49 58 46 42 39 34 31 27 23 18 16 13 14 14 11 18 17 22 24 22 24 29 32 31
37 39 41 40 42 40 42 48 48 49 46 46 45 42 44 42 41 45 44 40 38 35 31 29 29 27 23 21 17 13 14 14 15 15 18 20 19 20 19 21 29 31 31
30 30 31 33 37 39 38 40 38 37 36 40 42 43 48 41 40 42 39 40 36 30 27 26 26 22 20 17 15 17 17 17 18 18 16 19 14 20 21 23 30 25 20
25 27 26 26 29 29 30 31 30 39 41 40 40 41 38 37 37 36 32 28 24 25 26 22 20 17 12 13 17 16 14 12 16 14 13 19 16 21 24 27 16 19 22
23 23 21 24 27 29 30 32 33 32 33 36 36 36 34 29 29 25 24 25 21 21 17 15 13 11 13 15 15 15 14 15 15 14 10 16 16 19 16 14 11 20 15

GFSMA_850_spd_063.txt.gz
Wind_Speed
28 31 34 32 32 23 25 22 16 17 16 15 14 14 15 14 14 12 14 14 14 13 15 13 11 9 10 9 8 9 9 9 9 7 7 9 10 10 10 10 10 9 9
29 28 30 28 29 23 21 19 17 17 16 16 15 14 14 15 13 13 12 15 13 9 6 5 6 7 7 6 5 4 6 6 5 5 5 6 7 8 9 9 9 9 9
34 28 25 26 26 24 22 19 18 18 17 16 15 14 13 14 14 13 12 11 14 15 11 7 5 3 5 2 2 0 1 2 2 3 3 4 5 6 7 7 7 8 9
35 30 28 24 24 24 23 20 19 18 18 17 15 14 13 12 13 14 12 10 11 12 14 14 11 9 8 7 5 4 4 3 3 3 2 3 4 5 6 6 7 8 8
39 29 28 23 24 24 23 21 20 18 18 17 15 15 13 12 13 12 12 14 13 12 10 12 14 15 14 13 11 9 8 7 5 5 5 5 6 7 8 9 10 11 11
41 34 32 25 23 25 22 20 18 18 17 16 15 14 13 13 12 13 13 13 14 16 15 15 15 18 17 17 17 15 12 13 11 9 10 10 9 10 11 12 14 15 15
34 29 25 27 25 23 21 21 19 18 16 16 15 13 13 14 13 13 14 15 16 16 16 16 17 12 14 16 19 19 17 17 17 18 17 16 16 16 17 18 18 18 18
33 33 23 26 24 21 21 22 21 17 16 16 16 14 12 12 16 20 18 18 17 16 16 18 18 20 18 21 21 21 19 20 19 19 20 22 22 22 23 24 24 24 23
31 34 32 27 28 24 26 25 24 19 17 16 19 13 12 14 19 18 21 20 19 20 18 16 21 23 22 23 21 23 23 23 22 22 22 22 23 24 25 26 26 26 27
38 35 40 33 31 30 26 26 22 24 22 18 19 24 19 10 5 10 11 16 20 23 20 20 21 25 25 26 24 24 25 25 24 24 24 25 26 27 27 26 27 28 31
41 36 44 42 36 32 28 26 25 26 23 22 19 15 20 24 22 16 14 13 17 21 21 20 22 26 27 26 28 30 31 32 28 26 28 28 30 30 31 31 30 29 30
43 42 38 40 43 41 33 33 27 27 24 23 22 22 21 17 19 18 17 20 22 27 29 26 27 32 27 29 30 29 30 29 28 29 30 32 32 33 33 34 33 35 35
45 45 42 40 40 43 37 33 34 32 28 27 25 26 27 26 22 20 20 23 21 25 30 29 30 33 28 32 35 30 34 30 30 32 31 32 33 34 32 34 37 37 35
57 53 49 47 41 43 43 37 35 32 30 33 36 35 30 29 26 25 24 23 23 26 28 31 32 33 35 40 34 36 34 32 34 33 30 30 31 31 33 37 36 35 34
50 45 50 51 46 47 49 44 45 41 44 45 43 39 38 36 31 32 29 29 29 24 24 27 30 28 38 39 38 40 34 35 34 33 30 29 30 33 34 34 33 32 32
44 42 45 54 49 47 53 50 50 50 48 48 43 48 45 43 40 36 36 37 35 35 33 31 37 36 38 41 41 39 35 35 32 33 31 31 33 34 33 32 30 31 30
53 49 50 51 51 51 54 55 52 45 44 43 45 44 45 45 43 40 41 41 36 40 41 48 42 36 43 38 39 38 34 34 34 33 32 34 32 31 31 30 29 28 29
48 45 45 47 51 54 55 55 56 50 47 47 48 45 44 41 42 42 41 44 45 43 45 44 41 43 45 48 41 39 38 36 34 27 30 35 31 29 28 27 27 28 30
41 45 41 46 44 46 47 47 51 53 50 49 48 47 47 45 45 49 51 46 45 57 49 36 43 41 47 43 43 41 40 35 30 28 32 33 31 29 28 27 27 28 29
43 43 48 49 45 47 47 46 47 49 50 50 50 50 50 49 52 55 51 52 55 55 56 48 44 45 50 47 44 41 39 35 31 23 20 23 26 26 26 26 26 28 29
44 44 46 45 49 51 50 50 50 51 51 51 51 51 51 56 58 56 55 55 59 57 53 53 49 49 51 48 49 45 38 28 19 20 21 20 20 21 22 25 26 27 30
45 45 47 48 50 52 53 54 53 49 49 47 47 50 52 52 50 53 49 46 46 54 56 57 52 50 48 50 44 34 28 26 24 20 16 17 19 20 22 23 22 27 31
42 45 47 46 49 49 49 50 50 49 48 43 44 46 46 48 49 46 45 40 43 49 49 44 45 45 46 37 26 25 24 21 17 14 14 18 21 24 23 18 20 29 33
43 43 43 44 43 44 43 43 42 40 42 44 46 50 51 53 48 44 43 43 41 47 46 42 35 33 26 23 23 21 17 13 15 18 20 19 18 22 20 24 30 32 32
40 41 39 37 36 36 36 37 38 40 42 45 47 48 49 52 50 45 42 39 38 35 27 22 21 21 21 19 17 14 11 15 15 14 14 16 19 26 20 28 28 17 22
33 30 32 35 36 37 38 37 35 33 36 42 45 45 46 44 38 35 28 27 26 23 19 20 14 12 12 9 7 10 13 14 14 13 14 20 15 15 19 14 18 17 23

GFSMA_850_spd_066.txt.gz
Wind_Speed
35 32 35 34 32 31 28 27 23 18 19 14 15 20 15 15 11 10 18 18 17 16 16 16 15 14 12 11 10 10 10 9 9 8 8 9 8 8 8 7 6 6 5
31 31 37 35 33 29 29 26 20 19 17 15 18 19 14 13 9 8 15 17 16 16 16 15 13 13 12 10 8 7 7 7 6 6 6 6 6 6 6 6 6 6 6
28 33 37 36 31 27 28 22 21 20 19 16 17 18 16 15 11 8 7 15 15 13 10 8 7 5 6 6 5 5 4 4 4 4 3 3 3 4 4 4 6 6 6
29 29 33 33 29 23 22 20 24 21 20 18 17 18 16 18 14 11 8 8 12 14 14 12 10 8 6 5 5 4 5 5 3 3 3 3 1 1 2 3 4 5 6
31 30 29 27 29 27 25 23 22 22 22 20 18 16 16 16 20 15 13 8 9 10 11 12 13 12 11 11 10 9 8 9 8 6 5 4 3 3 3 3 5 5 6
35 30 25 33 31 24 27 21 22 22 22 20 16 17 18 16 16 16 18 17 13 12 12 11 12 14 14 15 16 17 15 16 13 11 9 8 7 7 7 8 8 9 9
39 35 26 30 29 27 27 24 23 22 18 21 20 20 18 16 15 20 22 21 23 22 21 17 17 17 16 20 18 18 20 20 22 18 16 14 14 13 13 14 14 14 14
45 37 33 33 34 28 27 28 24 23 18 22 20 21 18 18 24 23 20 22 22 23 22 25 22 21 19 16 18 20 22 22 23 24 24 23 20 20 20 20 19 19 19
42 40 33 26 27 28 26 27 27 24 26 25 26 20 16 14 21 24 28 25 25 24 20 19 22 24 22 23 22 22 23 23 24 25 25 27 26 25 25 24 24 23 23
42 40 38 33 31 31 30 26 24 28 25 27 29 28 23 15 9 10 21 23 28 23 25 26 24 22 22 23 29 30 28 28 28 28 28 29 29 29 28 27 26 26 26
41 40 41 39 36 35 29 31 30 31 30 26 27 30 27 24 20 12 12 20 20 29 29 25 27 26 27 29 29 29 32 35 35 33 29 30 31 33 32 32 31 31 30
45 47 37 41 36 36 36 32 31 31 32 33 28 27 25 25 26 27 20 21 25 27 27 28 28 29 31 34 34 37 34 36 37 39 37 34 33 34 35 36 36 35 35
49 50 42 43 40 39 39 36 36 36 34 32 29 26 30 30 27 23 20 24 23 28 29 30 31 33 34 36 37 39 37 34 38 36 35 36 37 36 36 37 37 37 36
57 55 52 50 44 44 41 39 38 39 32 34 33 34 32 30 28 30 29 28 27 29 32 37 36 32 31 36 36 36 40 41 39 41 39 39 39 38 37 37 37 34 34
52 52 54 53 55 48 50 46 48 48 42 38 36 37 36 37 34 38 35 33 32 31 35 41 39 37 30 29 37 40 41 41 46 43 42 43 42 39 37 36 35 35 36
50 54 53 51 56 52 47 46 47 50 47 43 44 43 42 44 43 40 43 40 40 41 42 38 33 34 31 32 38 41 43 46 48 45 45 44 42 40 38 36 35 36 36
48 53 55 52 49 52 51 52 50 47 51 53 51 51 48 43 46 49 44 48 50 47 47 46 45 43 41 38 44 50 45 44 49 50 47 43 40 40 37 36 34 35 34
38 43 53 50 52 53 52 54 54 53 51 54 55 54 55 52 49 50 48 50 50 51 51 51 50 49 45 48 48 43 47 48 49 50 45 42 40 39 36 33 33 33 32
41 39 46 52 54 54 55 57 58 56 56 56 54 51 52 51 50 50 50 52 52 52 54 54 53 55 53 53 47 49 48 51 48 47 40 37 35 34 32 31 32 30 30
41 40 43 51 54 57 58 55 59 59 60 61 61 57 53 51 50 48 47 48 51 53 55 55 57 55 55 57 51 52 54 53 53 51 49 42 33 28 28 29 28 29 29
45 45 46 47 48 50 52 50 49 50 50 51 52 53 54 54 53 52 50 51 53 55 55 55 57 52 53 57 57 54 53 52 52 45 37 30 23 28 24 26 25 25 24
44 45 48 48 48 52 53 52 51 49 49 49 50 50 50 50 52 54 52 52 55 59 58 53 53 49 57 57 54 51 48 46 39 40 37 33 31 22 23 26 24 22 22
45 48 50 48 52 51 52 53 54 52 50 49 48 47 46 47 47 50 52 52 54 55 59 59 60 57 53 51 47 42 39 39 36 30 28 27 17 22 25 27 22 20 24
43 44 46 46 44 46 47 46 47 47 48 52 51 49 46 46 45 46 49 50 51 52 56 55 49 46 40 34 30 29 29 29 26 23 22 20 19 23 25 25 22 25 30
39 41 41 40 42 45 46 47 44 45 44 46 49 50 49 50 50 47 43 43 45 40 36 35 28 25 21 20 19 19 20 20 14 10 8 15 18 21 27 30 29 29 32
37 35 38 40 41 42 44 43 41 41 42 42 44 47 50 50 49 46 38 30 26 22 18 13 13 13 12 15 16 14 10 4 4 5 12 19 22 26 28 29 25 22 21

GFSMA_850_spd_069.txt.gz
Wind_Speed
38 34 35 35 34 34 32 33 34 38 32 24 28 15 14 12 8 7 15 18 18 18 18 17 16 15 14 12 12 11 10 10 9 9 9 8 8 8 7 7 6 6 6
37 37 38 36 35 33 32 33 34 37 23 25 26 19 13 14 8 6 14 19 17 17 17 17 15 14 13 12 11 9 10 9 8 8 8 7 6 5 5 5 6 5 4
39 37 38 37 34 32 32 30 31 29 19 18 20 12 13 13 10 7 13 17 17 15 16 15 13 12 11 11 10 10 8 8 8 7 5 5 4 4 4 4 3 3 3
36 36 39 38 35 33 32 29 27 22 20 19 29 16 16 16 10 7 6 13 17 16 15 13 12 11 10 8 6 6 7 7 4 5 7 6 5 4 3 1 1 1 2
33 32 38 38 34 35 31 26 31 26 25 20 26 21 19 13 13 11 7 10 8 11 12 13 11 10 9 10 9 9 9 8 9 8 8 7 6 5 4 3 3 3 4
37 33 37 37 34 34 32 24 32 26 26 22 21 22 21 17 15 15 12 12 11 11 11 12 12 13 12 13 12 12 12 13 11 12 11 10 10 9 8 8 7 8 10
37 35 38 37 37 33 33 29 32 27 27 25 22 20 20 18 20 18 18 17 17 16 15 16 15 14 15 15 17 17 17 18 17 17 16 16 15 14 14 14 13 13 14
40 39 42 40 37 35 34 32 32 29 27 27 26 25 23 21 20 19 22 22 24 22 20 20 20 20 19 18 18 18 20 21 21 21 22 22 18 19 19 19 19 18 18
40 36 41 44 31 30 32 30 34 30 28 29 21 27 18 15 23 23 26 28 28 28 28 27 28 27 26 24 24 24 23 23 24 25 25 25 25 26 24 24 24 23 23
41 40 35 40 36 30 33 35 33 32 30 30 27 25 25 16 14 14 31 34 30 29 29 29 29 29 27 27 27 28 27 28 28 28 29 29 29 30 30 29 27 27 26
42 41 40 39 35 34 33 34 34 33 33 28 25 34 27 25 21 12 13 21 31 33 33 31 29 28 28 28 29 31 31 32 35 34 32 32 31 33 32 33 31 31 29
45 43 40 38 32 28 31 33 35 33 30 29 30 32 37 33 32 27 20 18 21 25 26 27 29 31 30 33 33 34 36 37 39 39 38 38 36 35 36 35 36 36 36
44 49 43 40 43 35 36 35 33 34 34 33 31 29 32 32 32 29 29 21 25 29 30 31 32 32 34 35 39 38 40 42 43 44 42 42 40 40 40 39 40 40 40
47 48 46 46 46 43 36 39 35 36 36 37 38 34 35 31 34 31 31 29 29 28 27 32 32 35 36 36 37 34 40 44 45 49 44 43 42 42 41 42 42 42 42
46 46 46 47 46 46 42 36 37 37 37 38 41 41 43 30 35 36 38 34 32 33 36 44 42 41 40 40 39 37 32 32 35 43 45 47 48 46 44 45 44 44 44
48 48 49 50 50 44 45 45 42 43 43 43 42 42 44 40 41 40 39 40 39 41 42 44 48 47 46 49 47 44 41 39 35 38 42 49 54 50 49 47 47 46 46
48 53 53 53 56 55 53 53 51 50 50 50 47 48 50 48 46 47 45 46 47 47 49 51 52 54 54 54 51 48 46 47 45 41 47 46 52 52 50 46 45 44 42
42 46 54 58 56 57 60 61 59 61 54 55 55 50 54 54 55 51 52 53 53 54 53 51 51 53 55 55 52 51 50 50 51 48 47 46 45 51 53 51 47 42 39
42 44 44 52 55 54 56 59 58 57 64 62 59 58 57 54 56 58 59 59 58 57 56 57 58 56 54 54 53 52 51 53 54 53 53 53 52 54 52 49 43 38 36
45 46 46 45 48 52 54 56 57 58 57 59 59 60 60 57 57 56 56 57 56 57 57 57 54 53 51 54 53 52 53 57 55 53 54 57 54 49 42 38 38 39 38
46 46 44 44 45 47 54 57 59 57 58 56 56 58 60 61 59 58 57 58 56 57 57 54 52 52 51 53 54 59 55 51 49 45 49 50 44 36 33 34 33 31 32
44 45 47 48 48 48 51 55 57 55 54 56 60 59 57 57 58 56 55 57 58 57 59 56 54 52 55 60 58 58 55 49 42 40 40 40 38 36 38 35 31 32 16
40 44 46 49 51 50 49 50 50 53 55 55 55 53 52 51 51 51 50 52 55 59 60 60 56 53 50 47 46 49 48 45 39 34 28 33 37 34 31 29 23 12 11
43 43 44 45 47 49 49 49 49 50 52 53 53 53 54 54 54 52 51 50 49 49 51 57 54 58 56 50 38 32 29 27 27 26 27 28 30 27 24 18 12 12 18
47 47 47 48 49 50 53 53 50 49 50 53 58 60 60 56 55 53 50 51 53 54 56 56 53 42 31 28 26 20 20 20 21 17 16 15 14 14 15 15 13 20 28
46 44 46 42 45 46 50 50 50 50 48 48 49 50 52 52 53 54 56 57 52 42 34 27 19 13 14 13 14 12 16 18 18 11 11 10 10 12 10 16 19 23 26

GFSMA_850_spd_075.txt.gz
Wind_Speed
37 33 44 39 36 46 45 41 36 32 29 27 22 17 16 13 10 11 14 19 19 18 16 16 16 16 15 13 12 12 11 10 9 8 8 7 6 5 4 4 4 4 4
37 46 45 41 37 47 46 43 35 33 31 25 21 19 16 12 9 8 14 16 15 16 15 16 15 15 14 12 11 10 9 9 9 8 7 6 5 5 5 5 5 5 5
39 49 48 44 39 47 47 45 38 35 32 26 20 21 17 13 10 7 12 14 17 16 16 16 16 15 13 11 11 9 9 8 8 8 7 6 6 6 6 6 6 6 6
41 45 48 42 40 45 45 47 44 38 31 24 23 25 18 15 12 8 10 13 16 17 17 17 16 14 13 12 10 9 9 8 8 8 7 7 8 8 9 7 7 8 7
54 55 49 43 43 44 44 48 45 41 31 25 25 23 18 16 12 9 10 13 15 17 17 16 15 14 13 11 10 10 10 9 10 10 8 9 10 10 9 10 10 9 8
40 45 43 43 43 44 45 48 47 40 34 28 23 19 17 18 14 10 10 11 14 15 16 16 17 16 14 12 12 12 12 12 13 13 11 11 11 12 12 12 12 11 11
36 36 38 40 41 43 44 47 46 38 31 27 23 19 19 19 16 14 12 9 12 14 16 16 17 16 15 15 14 14 14 14 15 13 14 15 14 15 16 16 16 16 15
32 33 36 39 42 41 44 45 46 39 32 28 25 25 23 22 22 20 16 13 13 14 16 17 18 19 18 17 17 17 16 17 19 21 19 18 16 15 17 19 20 20 20
37 37 36 39 41 41 43 43 46 40 37 31 29 24 16 11 25 24 22 18 17 17 20 22 21 21 20 20 20 20 20 20 21 22 22 25 24 23 22 22 23 24 25
37 39 40 39 39 38 40 40 44 42 36 37 34 35 25 15 17 14 26 24 20 22 24 28 27 26 24 24 24 24 24 24 24 25 25 26 29 31 31 30 30 30 30
39 39 40 43 39 38 41 39 37 37 37 38 37 35 33 23 21 20 17 25 23 25 32 32 31 30 28 28 28 27 26 25 26 27 27 27 29 31 34 35 36 37 37
40 42 38 39 39 40 39 41 38 36 38 39 39 37 38 35 26 24 22 22 23 29 28 31 36 33 31 31 29 27 25 26 27 27 29 30 32 33 35 37 39 40 42
28 33 36 40 41 42 41 39 42 40 41 41 38 42 39 40 36 32 28 25 27 26 25 26 25 25 28 28 27 28 28 28 30 31 30 29 31 34 36 39 41 43 44
34 32 39 37 36 38 42 41 39 42 34 38 35 33 41 39 38 36 33 29 28 30 31 32 32 30 28 31 31 28 29 27 28 34 35 37 34 34 38 41 41 43 45
33 32 37 37 37 39 41 42 42 37 34 41 40 41 34 36 38 37 36 36 33 35 35 40 36 34 33 35 35 34 35 33 34 35 40 45 43 41 39 42 42 42 39
26 30 42 40 37 34 36 38 39 35 36 34 34 38 43 44 42 41 40 38 38 36 38 46 43 43 45 43 40 42 43 44 44 43 41 44 47 49 47 44 44 45 46
25 29 34 41 42 39 37 34 35 35 37 39 40 42 45 44 45 44 44 46 46 47 49 45 49 45 44 42 46 49 51 51 51 50 49 46 46 47 48 44 45 46 48
29 30 32 36 43 45 44 44 44 45 47 47 48 46 47 48 47 48 51 51 53 54 55 52 50 52 52 51 54 54 57 59 59 56 52 49 47 47 46 44 48 48 45
30 33 36 37 40 43 47 49 47 52 54 53 54 55 53 51 53 53 53 54 54 56 56 55 55 56 59 59 58 57 59 60 60 58 54 52 44 40 40 40 43 47 48
30 31 34 36 38 40 43 45 49 51 54 56 56 57 56 57 58 58 58 59 60 60 59 57 57 61 61 61 58 58 59 57 58 53 51 50 46 44 44 45 47 48 51
28 28 33 37 39 41 43 44 45 49 54 57 58 59 60 61 61 61 62 63 61 59 58 52 50 49 50 50 49 52 54 57 54 54 55 55 51 52 50 46 46 47 44
31 32 35 36 37 40 43 45 45 47 49 51 55 57 58 59 63 64 60 59 58 54 54 54 53 51 53 55 52 51 54 54 51 48 49 54 50 52 51 47 48 45 40
29 34 37 38 39 40 41 42 43 47 50 51 53 53 54 54 52 52 52 51 51 52 54 59 59 55 54 57 56 53 50 51 55 50 50 53 52 46 46 44 37 33 31
29 32 35 35 36 38 45 45 45 43 43 47 50 51 54 51 51 51 51 50 49 50 53 54 58 63 66 65 57 60 61 54 50 49 48 37 37 32 31 26 24 25 27
19 27 31 32 38 38 45 46 47 45 46 46 45 51 52 53 53 54 57 57 56 57 60 59 59 63 66 73 69 64 63 53 45 35 29 26 20 20 18 14 15 16 17
11 12 19 26 32 36 41 47 49 46 45 43 47 52 55 56 58 57 59 55 54 55 54 51 45 38 23 23 19 18 17 17 19 9 8 8 10 13 9 13 15 14 17

GFSMA_850_spd_078.txt.gz
Wind_Speed
30 36 34 34 33 30 38 37 35 31 27 25 21 15 12 13 14 16 16 18 20 18 18 18 17 15 14 13 12 12 12 11 10 9 8 7 7 6 5 4 4 4 4
35 39 37 37 34 32 38 38 35 31 27 25 21 17 13 12 11 13 14 17 19 19 18 17 16 14 13 12 11 11 10 10 8 7 7 6 5 4 4 3 3 4 4
37 34 34 37 36 34 38 40 35 31 27 27 24 18 16 13 11 12 14 15 17 18 17 16 15 14 12 12 11 10 9 8 8 7 6 6 6 5 4 4 4 5 4
41 39 32 35 41 37 41 42 37 32 32 30 25 22 19 15 12 11 13 13 15 17 16 16 14 13 12 11 10 9 9 9 8 7 7 7 6 6 5 5 6 6 6
44 41 39 42 44 39 44 45 40 36 34 29 23 22 20 17 13 11 11 14 14 15 15 14 14 13 11 11 10 10 10 9 8 8 8 8 8 7 8 8 8 8 8
36 34 44 42 43 38 48 46 41 38 35 29 24 25 21 18 15 11 11 13 14 15 15 16 16 15 13 12 11 11 11 10 11 10 10 11 10 10 11 11 11 10 11
34 47 39 37 41 38 48 47 43 38 34 29 27 27 22 20 19 16 12 11 13 13 14 16 16 16 15 14 13 13 14 13 13 12 13 15 13 12 13 13 13 14 15
34 47 43 41 40 40 47 48 46 41 35 31 32 29 23 21 23 20 17 15 13 12 12 12 14 15 16 17 17 17 16 16 17 17 15 14 13 13 13 15 16 17 18
32 32 31 34 36 38 43 46 48 45 38 35 32 24 15 11 25 24 23 19 17 15 13 13 15 17 18 19 20 20 20 19 19 18 19 20 20 20 19 19 19 19 21
21 30 28 26 29 35 41 44 48 46 42 38 32 31 24 16 19 14 26 24 22 21 18 17 19 20 22 23 22 23 23 22 22 22 23 23 25 25 26 26 25 25 27
25 30 39 33 30 35 39 41 47 46 42 38 38 33 26 22 18 19 21 29 27 26 23 19 23 24 28 28 28 27 27 26 26 26 25 26 27 28 29 29 29 29 29
23 29 38 40 36 33 35 38 41 42 43 39 35 36 36 32 25 22 19 20 30 26 22 22 32 29 29 31 32 31 30 29 28 28 27 27 28 29 30 32 33 34 35
23 34 35 40 41 42 41 35 35 36 44 41 38 37 37 35 33 28 25 22 21 22 22 17 23 31 27 26 27 26 28 26 28 29 29 30 31 31 31 32 34 37 38
24 27 41 38 43 44 43 41 43 43 41 41 36 37 39 40 35 33 31 30 27 27 25 30 29 33 37 34 32 26 30 32 31 30 29 30 31 34 37 39 39 37 37
21 20 19 23 25 33 40 44 44 46 43 41 40 40 42 39 39 37 35 37 37 33 34 36 32 36 38 40 38 35 35 35 34 35 34 33 34 38 38 40 44 46 44
19 22 22 23 27 30 33 37 42 49 43 45 44 42 42 40 44 40 41 38 36 42 42 37 37 36 36 40 36 44 46 45 44 42 41 42 44 44 44 45 45 46 48
18 21 24 26 27 30 30 31 34 39 43 44 43 42 38 38 41 41 41 44 43 43 46 46 44 49 51 51 48 43 44 42 42 42 45 48 49 51 52 51 49 47 46
13 15 16 21 25 33 32 32 32 33 38 38 37 37 38 35 38 40 45 45 47 47 47 50 55 55 59 57 52 51 52 52 52 53 54 53 52 53 53 51 50 48 49
15 16 19 20 23 27 32 36 35 36 37 37 38 40 41 40 42 45 49 51 51 52 57 60 60 56 58 57 59 57 60 60 59 57 56 56 58 55 52 50 49 47 45
13 17 20 23 25 27 29 32 36 39 42 45 46 48 49 51 51 52 53 55 58 57 57 58 55 58 61 61 58 59 56 57 59 57 52 51 47 48 46 44 43 44 45
13 14 17 18 23 27 31 32 34 37 38 40 42 44 48 50 52 54 54 54 53 54 54 53 50 49 52 53 52 51 51 52 54 53 56 55 51 52 51 46 44 40 41
17 18 20 21 24 27 29 30 32 36 39 41 44 45 47 49 51 53 55 57 56 54 53 53 54 54 53 55 55 52 52 50 52 48 46 49 50 48 49 51 53 51 45
19 21 24 25 23 25 32 33 35 37 38 41 40 41 45 47 48 50 50 50 51 51 54 56 58 59 59 57 54 53 53 53 55 49 49 54 54 54 53 49 47 47 44
19 21 23 25 26 33 37 40 39 36 36 39 41 45 44 44 43 46 50 52 51 50 56 55 57 61 56 54 48 46 44 45 47 47 44 41 40 33 34 31 27 23 20
10 11 17 20 22 27 33 38 38 36 36 40 43 42 44 47 50 51 49 44 38 41 49 56 57 55 57 60 66 64 62 57 51 45 36 23 19 17 15 13 13 11 12
4 4 5 6 9 13 19 27 29 27 24 29 29 29 32 37 41 47 44 45 42 34 29 28 18 22 25 20 15 16 17 17 17 14 7 7 9 10 6 8 8 10 10